Location: Unspecified
(51.6250°N, 0.8230°E)
Time: 16:41:42
(UTC+01:00)

Resurs 1-4 Rocket - Visible Passes

Search period start: 22 September 2018 00:00
Search period end: 02 October 2018 00:00
Orbit: 799 x 814 km, 98.5° (Epoch: 21 September)

Date Brightness Start Highest point End Pass type
(mag) Time Alt. Az. Time Alt. Az. Time Alt. Az.
22 Sep 3.8 02:06:10 10° NNE 02:09:33 26° ENE 02:09:33 26° ENE visible
22 Sep 2.4 03:45:44 10° N 03:50:37 51° WNW 03:50:37 51° WNW visible
22 Sep 4.1 05:27:51 10° NNW 05:29:34 12° NW 05:31:15 10° WNW visible
23 Sep 4.3 01:42:10 10° NE 01:44:33 18° ENE 01:44:33 18° ENE visible
23 Sep 2.3 03:21:02 10° NNE 03:25:38 65° NNW 03:25:38 65° NNW visible
23 Sep 3.8 05:02:10 10° NNW 05:05:23 17° NW 05:06:43 15° WNW visible
24 Sep 4.8 01:18:54 10° ENE 01:19:34 11° ENE 01:19:34 11° ENE visible
24 Sep 2.7 02:56:26 10° NNE 03:00:39 54° NE 03:00:39 54° NE visible
24 Sep 3.4 04:37:01 10° N 04:41:07 23° WNW 04:41:43 23° WNW visible
25 Sep 3.3 02:31:57 10° NNE 02:35:40 37° ENE 02:35:40 37° ENE visible
25 Sep 2.9 04:12:04 10° N 04:16:44 34° WNW 04:16:44 34° WNW visible
26 Sep 3.9 02:07:38 10° NNE 02:10:40 25° ENE 02:10:40 25° ENE visible
26 Sep 2.6 03:47:15 10° N 03:51:45 47° NW 03:51:45 47° NW visible
26 Sep 4.1 05:29:30 10° NNW 05:31:03 11° NW 05:32:35 10° WNW visible
27 Sep 4.4 01:43:36 10° NE 01:45:41 17° ENE 01:45:41 17° ENE visible
27 Sep 2.5 03:22:32 10° NNE 03:26:45 56° N 03:26:45 56° N visible
27 Sep 3.8 05:03:43 10° NNW 05:06:52 16° NW 05:07:50 15° WNW visible
28 Sep 4.8 01:20:15 10° ENE 01:20:42 11° ENE 01:20:42 11° ENE visible
28 Sep 2.9 02:57:56 10° NNE 03:01:46 47° NNE 03:01:46 47° NNE visible
28 Sep 3.4 04:38:33 10° N 04:42:37 23° WNW 04:42:50 23° WNW visible
29 Sep 3.5 02:33:27 10° NNE 02:36:47 34° NE 02:36:47 34° NE visible
29 Sep 3.1 04:13:35 10° N 04:17:51 32° NW 04:17:51 32° NW visible
30 Sep 4.1 02:09:07 10° NNE 02:11:47 24° ENE 02:11:47 24° ENE visible
30 Sep 2.8 03:48:46 10° N 03:52:51 43° NNW 03:52:51 43° NNW visible
30 Sep 4.1 05:31:08 10° NNW 05:32:32 11° NW 05:33:55 10° WNW visible
01 Oct 4.5 01:45:03 10° NE 01:46:47 16° ENE 01:46:47 16° ENE visible
01 Oct 2.8 03:24:03 10° NNE 03:27:52 47° N 03:27:52 47° N visible
01 Oct 3.8 05:05:17 10° NNW 05:08:21 16° NW 05:08:57 16° WNW visible
